This is the latest recevied weather packets stored in our database for station/object kc7mrq. If no packets are shown the sender has not sent any weather packets the latest 10 day(s).
| Time | Temp. | Humidity | Pressure | Rain* | Wind** | Luminosity | Snow |
|---|---|---|---|---|---|---|---|
| 1778057120 | -2.22° C | 73% | 1021.2 hPa | 0 mm | - | - | - |
| 1778054415 | -3.33° C | 77% | 1021.2 hPa | 0 mm | - | - | - |
| 1778053514 | -3.33° C | 76% | 1021.3 hPa | 0 mm | - | - | - |
| 1778052609 | -2.78° C | 75% | 1021.5 hPa | 0 mm | - | - | - |
| 1778044551 | -1.11° C | 70% | 1021.5 hPa | 0 mm | - | - | - |
| 1778040047 | -1.11° C | 65% | 1021.1 hPa | 0 mm | - | - | - |
| 1778039145 | 0.56° C | 62% | 1021.1 hPa | 0 mm | - | - | - |
| 1778032892 | 2.78° C | 53% | 1019.5 hPa | 0 mm | - | - | - |
| 1778028327 | 3.33° C | 55% | 1018.8 hPa | 0 mm | - | - | - |
| 1778027424 | 3.33° C | 56% | 1018.7 hPa | 0 mm | - | - | - |
| 1778026522 | 3.33° C | 56% | 1018.5 hPa | 0 mm | - | - | - |
| 1778018409 | 5.56° C | 47% | 1017.1 hPa | 0 mm | - | - | - |
| 1778017509 | 6.67° C | 45% | 1017.1 hPa | 0 mm | - | - | - |
| 1778009459 | 5.56° C | 49% | 1017.1 hPa | 0 mm | - | - | - |
| 1778008558 | 5.56° C | 49% | 1017.2 hPa | 0 mm | - | - | - |
| 1778000448 | 3.89° C | 52% | 1017.2 hPa | 0 mm | - | - | - |
| 1777999605 | 3.89° C | 51% | 1017.1 hPa | 0 mm | - | - | - |
| 1777998643 | 3.89° C | 52% | 1017.2 hPa | 0 mm | - | - | - |
| 1777996840 | 3.33° C | 51% | 1017.1 hPa | 0 mm | - | - | - |
| 1777992332 | 2.22° C | 55% | 1017.2 hPa | 0 mm | - | - | - |
| 1777987826 | 0.56° C | 67% | 1016.6 hPa | 0 mm | - | - | - |
| 1777971652 | -0.56° C | 66% | 1015.3 hPa | 0 mm | - | - | - |
| 1777968051 | 0° C | 67% | 1015.4 hPa | 0 mm | - | - | - |
| 1777966246 | 0.56° C | 66% | 1015.3 hPa | 0 mm | - | - | - |
| 1777959923 | 2.22° C | 57% | 1015.2 hPa | 0 mm | - | - | - |
* Rain latest hour (hover to see other rain measurements)
** Current wind speed in m/s (hover to see current wind gust speed)